Tracking 35237 objects as of 6-Sep-2026
HD Live streaming from Space Station
objects crossing your sky now

COSMOS 1220 DEB


COSMOS 1220 DEB is no longer on orbit


NORAD ID: 14350
Int'l Code: 1980-089BH
Launch date: November 4, 1980
Source: Commonwealth of Independent States (former USSR) (CIS)
Launch site: TYURATAM MISSILE AND SPACE COMPLEX (TTMTR)
Decay date: 1988-05-27

Note: This is SATELLITE DEBRIS
Your satellite tracking list
Your tracking list is empty




NASA's NSSDC Master Catalog

Two Line Element Set (TLE):
1 14350U 80089 BH 88145.36294972  .02480501 +00000-0 +91914-2 0  9992
2 14350 064.8997 146.3933 0025730 252.1420 107.7438 15.87173958280262
Source of the keplerian elements: AFSPC